GW1174 Weather Reports


time (UTC)temp
C
wind
direction
speed
KPH
gust
KPH
rain 1hr
cm
rain 24hr
cm
rain mn
cm
humidity
%
barometer
mb
20260831233017 14 225 6.4 9.7 0.03 0.61 0.03 88 1019.1
20260831232517 17 157 9.7 11.3 0.18 0.51 0.25 46 1079.8
20260831232017 14 225 3.2 6.4 0.03 0.61 0.03 87 1019.0
20260831231517 17 153 9.7 11.3 0.18 0.51 0.23 45 1079.0
20260831231017 15 225 1.6 4.8 0.03 0.61 0.03 88 1019.1
20260831230517 17 149 9.7 11.3 0.18 0.51 0.20 45 1078.3
20260831230037 15 225 4.8 9.7 0.03 0.61 0.03 87 1019.1
20260831225517 16 145 9.7 11.3 0.18 0.51 0.18 44 1077.5
20260831225017 15 225 8.0 14.5 0.00 0.58 0.00 87 1019.3
20260831224557 16 141 9.7 11.3 0.13 0.51 0.13 44 1076.8
20260831224017 15 248 4.8 9.7 0.03 0.58 0.00 87 1019.4
20260831223517 16 138 9.7 11.3 0.10 0.51 0.10 43 1076.0
20260831223017 15 225 6.4 12.9 0.03 0.58 0.00 86 1019.3
20260831222517 15 134 9.7 12.9 0.08 0.51 0.08 42 1075.2
20260831222017 15 225 6.4 12.9 0.03 0.58 0.00 86 1019.3
20260831221517 15 130 9.7 12.9 0.05 0.51 0.05 42 1074.5
20260831221021 15 203 4.8 11.3 0.03 0.58 0.00 86 1019.2
20260831220517 15 126 9.7 12.9 0.03 0.51 0.03 41 1073.8
20260831220017 15 248 3.2 6.4 0.03 0.58 0.58 85 1019.0
20260831215518 14 122 11.3 12.9 0.00 0.51 0.51 40 1073.0
20260831215036 16 315 3.2 6.4 0.03 0.58 0.58 84 1019.2
20260831214557 13 119 11.3 12.9 0.00 0.51 0.51 40 1072.3
20260831214036 16 293 4.8 8.0 0.00 0.56 0.56 82 1019.2
20260831213517 13 115 11.3 12.9 0.00 0.51 0.51 39 1071.6
20260831213036 16 270 4.8 12.9 0.00 0.56 0.56 80 1019.0
20260831212517 12 111 11.3 12.9 0.00 0.51 0.51 39 1070.8
20260831212016 16 270 4.8 12.9 0.00 0.56 0.56 79 1018.7
20260831211517 12 108 11.3 12.9 0.00 0.51 0.51 38 1070.1
20260831211016 16 225 8.0 17.7 0.00 0.56 0.56 79 1018.5
20260831210517 12 104 11.3 14.5 0.00 0.51 0.51 37 1069.4
20260831210016 16 225 8.0 17.7 0.00 0.56 0.56 78 1018.6
20260831205517 11 101 11.3 14.5 0.00 0.51 0.51 37 1068.7
20260831205016 16 270 3.2 9.7 0.00 0.56 0.56 76 1018.4
20260831204517 11 97 11.3 14.5 0.00 0.51 0.51 36 1068.0
20260831204016 16 248 8.0 14.5 0.00 0.56 0.56 75 1018.2
20260831203517 10 94 11.3 14.5 0.00 0.51 0.51 36 1067.3
20260831203016 17 248 6.4 14.5 0.00 0.56 0.56 75 1018.3
20260831202517 10 90 11.3 14.5 0.00 0.51 0.51 35 1066.6
20260831202016 17 225 9.7 19.3 0.00 0.56 0.56 74 1018.1
20260831201538 9 87 12.9 14.5 0.00 0.51 0.51 34 1066.0
20260831201016 17 225 8.0 14.5 0.00 0.56 0.56 74 1017.9
20260831200517 8 84 12.9 14.5 0.00 0.51 0.51 34 1065.3
20260831200016 17 270 9.7 19.3 0.00 0.56 0.56 73 1017.5
20260831195537 8 80 12.9 14.5 0.00 0.51 0.51 33 1064.7
20260831195016 17 225 11.3 20.9 0.00 0.56 0.56 72 1017.4
20260831194537 8 77 12.9 14.5 0.00 0.51 0.51 33 1064.0
20260831194016 17 225 16.1 27.4 0.00 0.56 0.56 71 1017.3
20260831193517 7 74 12.9 16.1 0.00 0.51 0.51 32 1063.4
20260831193016 17 225 14.5 27.4 0.00 0.56 0.56 68 1017.0
20260831192518 7 71 12.9 16.1 0.00 0.51 0.51 32 1062.8
20260831192016 18 225 11.3 19.3 0.00 0.56 0.56 65 1017.0
20260831191517 6 68 12.9 16.1 0.00 0.51 0.51 31 1062.2
20260831191017 18 225 12.9 32.2 0.00 0.56 0.56 64 1017.1
20260831190517 6 65 12.9 16.1 0.00 0.51 0.51 31 1061.6
20260831190017 18 248 12.9 25.7 0.00 0.56 0.56 62 1017.1
20260831185517 5 62 12.9 16.1 0.00 0.51 0.51 30 1061.0
20260831185017 19 225 17.7 30.6 0.00 0.56 0.56 61 1016.9
20260831184517 5 59 12.9 16.1 0.00 0.51 0.51 30 1060.4
20260831184017 20 248 16.1 25.7 0.00 0.56 0.56 60 1016.9
20260831183517 5 56 12.9 16.1 0.00 0.51 0.51 29 1059.8
20260831183017 20 225 14.5 29.0 0.00 0.56 0.56 59 1016.4
20260831182557 4 53 14.5 16.1 0.00 0.51 0.51 29 1059.3
20260831182017 20 225 11.3 24.1 0.00 0.56 0.56 59 1016.1
20260831181517 3 50 14.5 16.1 0.00 0.51 0.51 28 1058.7
20260831181036 20 225 12.9 27.4 0.00 0.56 0.56 58 1015.9
20260831180518 3 48 14.5 16.1 0.00 0.51 0.51 28 1058.2
20260831180037 20 225 12.9 27.4 0.00 0.56 0.56 57 1015.8
20260831175517 3 45 14.5 17.7 0.00 0.51 0.51 27 1057.7
20260831175018 20 225 14.5 22.5 0.00 0.56 0.56 57 1015.9
20260831174517 2 42 14.5 17.7 0.00 0.51 0.51 27 1057.2
20260831174017 20 270 11.3 22.5 0.00 0.56 0.56 57 1016.0
20260831173517 2 40 14.5 17.7 0.00 0.51 0.51 27 1056.7
20260831173016 20 225 12.9 24.1 0.00 0.56 0.56 57 1016.0
20260831172517 2 37 14.5 17.7 0.00 0.51 0.51 26 1056.2
20260831172016 20 225 9.7 19.3 0.00 0.56 0.56 57 1015.8
20260831171517 1 35 14.5 17.7 0.00 0.51 0.51 26 1055.7
20260831171016 21 225 11.3 20.9 0.00 0.56 0.56 56 1015.7
20260831170517 1 33 14.5 17.7 0.00 0.51 0.51 25 1055.3
20260831170037 21 225 9.7 22.5 0.00 0.56 0.56 56 1015.7
20260831165517 1 31 14.5 17.7 0.00 0.51 0.51 25 1054.8
20260831165016 21 270 11.3 17.7 0.00 0.56 0.56 57 1016.0
20260831164517 1 28 14.5 17.7 0.00 0.51 0.51 25 1054.4
20260831164017 22 248 12.9 25.7 0.00 0.56 0.56 55 1016.0
20260831163517 0 26 14.5 17.7 0.00 0.51 0.51 24 1054.0
20260831163017 22 225 8.0 14.5 0.00 0.56 0.56 56 1016.0
20260831162517 0 24 14.5 17.7 0.00 0.51 0.51 24 1053.6
20260831162017 22 248 8.0 14.5 0.00 0.56 0.56 56 1015.8
20260831161517 0 22 14.5 17.7 0.00 0.51 0.51 24 1053.2
20260831161016 22 203 11.3 20.9 0.00 0.56 0.56 56 1015.8
20260831160517 0 21 14.5 17.7 0.00 0.51 0.51 23 1052.8
20260831160016 22 225 11.3 20.9 0.00 0.56 0.56 55 1015.7
20260831155517 0 19 14.5 17.7 0.00 0.51 0.51 23 1052.5
20260831155016 22 248 9.7 19.3 0.00 0.56 0.56 55 1015.7
20260831154537 0 17 16.1 17.7 0.00 0.51 0.51 23 1052.1
20260831154117 22 225 14.5 29.0 0.00 0.56 0.56 53 1015.7
20260831153517 0 15 16.1 19.3 0.00 0.51 0.51 23 1051.8
20260831153017 22 270 12.9 20.9 0.00 0.56 0.56 54 1015.5
20260831152516 0 14 16.1 19.3 0.00 0.51 0.51 22 1051.5
20260831152018 23 225 14.5 30.6 0.00 0.56 0.56 52 1015.6
20260831151517 -1 12 16.1 19.3 0.00 0.51 0.51 22 1051.2
20260831151016 23 225 12.9 24.1 0.00 0.56 0.56 51 1015.6
20260831150517 -1 11 16.1 19.3 0.00 0.51 0.51 22 1051.0
20260831150016 23 203 12.9 32.2 0.00 0.56 0.56 52 1015.5
20260831145517 -1 10 16.1 19.3 0.00 0.51 0.51 22 1050.7
20260831145016 22 225 17.7 33.8 0.00 0.56 0.56 52 1015.5
20260831144517 -1 8 16.1 19.3 0.00 0.51 0.51 21 1050.4
20260831144016 23 270 14.5 22.5 0.00 0.56 0.56 54 1015.5
20260831143517 -1 7 16.1 19.3 0.00 0.51 0.51 21 1050.2
20260831143016 23 225 14.5 22.5 0.00 0.56 0.56 54 1015.6
20260831142517 -1 6 16.1 19.3 0.00 0.51 0.51 21 1050.0
20260831142016 23 225 11.3 19.3 0.00 0.56 0.56 56 1015.7
20260831141537 -1 5 16.1 19.3 0.00 0.51 0.51 21 1049.8
20260831141036 23 248 14.5 24.1 0.00 0.56 0.56 56 1015.8
20260831140517 -1 4 16.1 19.3 0.00 0.51 0.51 21 1049.6
20260831140016 22 225 11.3 17.7 0.00 0.56 0.56 59 1015.8
20260831135517 -1 4 16.1 19.3 0.00 0.51 0.51 21 1049.5
20260831135016 23 203 9.7 19.3 0.00 0.56 0.56 57 1015.7
20260831134537 -1 3 16.1 19.3 0.00 0.51 0.51 20 1049.3
20260831134016 23 203 12.9 22.5 0.00 0.56 0.56 58 1015.8
20260831133517 -1 2 16.1 19.3 0.00 0.51 0.51 20 1049.2
20260831133016 22 225 11.3 24.1 0.00 0.56 0.56 59 1015.7
20260831132517 0 2 16.1 19.3 0.00 0.51 0.51 20 1049.1
20260831132016 22 225 11.3 25.7 0.00 0.56 0.56 58 1015.7
20260831131517 0 1 16.1 19.3 0.00 0.51 0.51 20 1049.0
20260831131036 22 203 9.7 19.3 0.00 0.56 0.56 59 1015.9
20260831130517 0 1 16.1 19.3 0.00 0.51 0.51 20 1048.9
20260831130016 21 270 8.0 17.7 0.00 0.56 0.56 60 1015.8
20260831125517 0 0 16.1 19.3 0.00 0.51 0.51 20 1048.9
20260831125016 21 225 12.9 20.9 0.00 0.56 0.56 62 1015.8
20260831124517 0 0 16.1 19.3 0.00 0.51 0.51 20 1048.8
20260831124016 21 248 12.9 20.9 0.00 0.56 0.56 61 1015.9
20260831123517 0 0 16.1 19.3 0.00 0.51 0.51 20 1048.8
20260831123016 21 225 9.7 20.9 0.00 0.56 0.56 61 1015.8
20260831122517 0 0 16.1 19.3 0.00 0.51 0.51 20 1048.8
20260831122016 21 248 11.3 17.7 0.00 0.56 0.56 60 1015.8
20260831121517 0 0 16.1 19.3 0.00 0.51 0.51 20 1048.8
20260831121016 21 203 12.9 24.1 0.00 0.56 0.56 62 1015.8
20260831120517 1 0 16.1 19.3 0.00 0.51 0.51 20 1048.8
20260831120016 22 225 16.1 29.0 0.00 0.56 0.56 61 1015.9
20260831115557 1 0 16.1 19.3 0.00 0.51 0.51 20 1048.9
20260831115036 22 248 12.9 22.5 0.00 0.56 0.56 60 1015.9
20260831114516 1 1 16.1 19.3 0.00 0.51 0.51 20 1048.9
20260831114056 21 225 14.5 22.5 0.00 0.56 0.56 60 1015.8
20260831113517 1 1 16.1 19.3 0.00 0.51 0.51 20 1049.0
20260831113016 21 248 12.9 22.5 0.00 0.56 0.56 64 1015.8
20260831112517 2 1 16.1 19.3 0.00 0.51 0.51 20 1049.1
20260831112036 22 225 14.5 24.1 0.00 0.56 0.56 62 1016.1
20260831111517 2 2 16.1 19.3 0.00 0.51 0.51 20 1049.2
20260831111015 21 225 16.1 29.0 0.00 0.56 0.56 63 1015.8
20260831110517 2 3 16.1 19.3 0.00 0.51 0.51 20 1049.3
20260831110016 21 225 14.5 24.1 0.00 0.56 0.56 63 1015.8
20260831105517 3 3 16.1 19.3 0.00 0.51 0.51 21 1049.4
20260831105016 21 225 17.7 29.0 0.00 0.56 0.56 62 1015.8
20260831104517 3 4 16.1 19.3 0.00 0.51 0.51 21 1049.6
20260831104016 21 225 12.9 22.5 0.00 0.56 0.56 67 1015.8
20260831103517 3 5 16.1 19.3 0.00 0.51 0.51 21 1049.8
20260831103018 21 270 11.3 25.7 0.00 0.56 0.56 68 1015.8
20260831102517 4 6 16.1 19.3 0.00 0.51 0.51 21 1050.0
20260831102017 20 225 16.1 32.2 0.00 0.56 0.56 70 1015.8
20260831101517 5 7 16.1 19.3 0.00 0.51 0.51 21 1050.2
20260831101018 20 248 9.7 30.6 0.00 0.56 0.56 70 1015.9
20260831100537 5 8 16.1 19.3 0.00 0.51 0.51 21 1050.4
20260831100018 20 270 12.9 25.7 0.00 0.56 0.56 72 1015.8
20260831095517 5 9 16.1 19.3 0.00 0.51 0.51 22 1050.6
20260831095038 20 270 14.5 27.4 0.00 0.56 0.56 72 1016.0
20260831094537 6 11 16.1 19.3 0.00 0.51 0.51 22 1050.9
20260831094017 20 225 14.5 30.6 0.00 0.56 0.56 75 1016.0
20260831093517 6 12 16.1 19.3 0.00 0.51 0.51 22 1051.2
20260831093037 19 270 9.7 22.5 0.00 0.56 0.56 78 1015.9
20260831092517 7 14 16.1 19.3 0.00 0.51 0.51 22 1051.5
20260831092018 19 270 11.3 24.1 0.00 0.56 0.56 76 1015.9
20260831091517 7 15 16.1 19.3 0.00 0.51 0.51 23 1051.8
20260831091036 20 293 9.7 19.3 0.00 0.56 0.56 79 1016.0
20260831090517 7 17 16.1 17.7 0.00 0.51 0.51 23 1052.1
20260831090038 19 248 12.9 24.1 0.00 0.56 0.56 82 1015.9
20260831085517 8 18 14.5 17.7 0.00 0.51 0.51 23 1052.4
20260831085017 18 270 11.3 20.9 0.00 0.56 0.56 86 1015.7
20260831084517 8 20 14.5 17.7 0.00 0.51 0.51 23 1052.8
20260831084038 18 270 17.7 29.0 0.00 0.56 0.56 88 1015.8
20260831083517 9 22 14.5 17.7 0.00 0.51 0.51 24 1053.1
20260831083038 17 248 12.9 27.4 0.00 0.56 0.56 91 1015.7
20260831082517 10 24 14.5 17.7 0.00 0.51 0.51 24 1053.5
20260831082037 17 270 9.7 25.7 0.00 0.56 0.56 92 1015.6
20260831081517 10 26 14.5 17.7 0.00 0.51 0.51 24 1053.9
20260831081017 17 248 11.3 20.9 0.00 0.56 0.56 93 1015.5
20260831080517 11 28 14.5 17.7 0.00 0.51 0.51 25 1054.3
20260831080018 16 248 9.7 20.9 0.00 0.56 0.56 94 1015.4
20260831075517 11 30 14.5 17.7 0.00 0.51 0.51 25 1054.7
20260831075017 16 248 11.3 25.7 0.00 0.56 0.56 94 1015.3
20260831074517 11 32 14.5 17.7 0.00 0.51 0.51 25 1055.2
20260831074018 16 270 12.9 27.4 0.00 0.56 0.56 94 1015.4
20260831073517 12 35 14.5 17.7 0.00 0.51 0.51 26 1055.6
20260831073018 16 270 9.7 22.5 0.00 0.56 0.56 94 1015.2
20260831072516 12 37 14.5 17.7 0.00 0.51 0.51 26 1056.1
20260831072017 16 248 14.5 24.1 0.00 0.56 0.56 94 1015.1
20260831071517 13 39 14.5 17.7 0.00 0.51 0.51 27 1056.6
20260831071017 16 225 11.3 22.5 0.00 0.56 0.56 94 1015.0
20260831070517 13 42 14.5 17.7 0.00 0.51 0.51 27 1057.1
20260831070017 16 225 9.7 19.3 0.00 0.56 0.56 94 1014.9
20260831065517 14 44 14.5 17.7 0.00 0.51 0.51 27 1057.6
20260831065017 16 225 9.7 17.7 0.00 0.56 0.56 94 1015.0
20260831064517 14 47 14.5 16.1 0.00 0.51 0.51 28 1058.1
20260831064017 16 225 8.0 14.5 0.00 0.56 0.56 94 1014.9
20260831063517 15 50 14.5 16.1 0.00 0.51 0.51 28 1058.6
20260831063017 15 203 6.4 14.5 0.00 0.56 0.56 94 1014.8
20260831062517 15 52 14.5 16.1 0.00 0.51 0.51 29 1059.2
20260831062037 15 203 8.0 12.9 0.00 0.56 0.56 94 1014.8
20260831061517 16 55 12.9 16.1 0.00 0.51 0.51 29 1059.7
20260831061017 15 180 4.8 8.0 0.00 0.56 0.56 94 1014.8
20260831060517 16 58 12.9 16.1 0.00 0.51 0.51 30 1060.3
20260831060017 15 158 4.8 8.0 0.00 0.56 0.56 94 1014.6
20260831055517 16 61 12.9 16.1 0.00 0.51 0.51 30 1060.9
20260831055017 15 158 6.4 11.3 0.00 0.56 0.56 94 1014.5
20260831054517 17 64 12.9 16.1 0.00 0.51 0.51 31 1061.4
20260831054017 15 113 3.2 4.8 0.00 0.56 0.56 94 1014.4
20260831053517 17 67 12.9 16.1 0.00 0.51 0.51 31 1062.0
20260831053037 15 158 3.2 6.4 0.03 0.56 0.56 94 1014.6
20260831052517 17 70 12.9 16.1 0.00 0.51 0.51 32 1062.7
20260831052037 15 225 3.2 4.8 0.03 0.56 0.56 94 1014.7
20260831051517 18 73 12.9 16.1 0.00 0.51 0.51 32 1063.3
20260831051017 15 158 1.6 4.8 0.03 0.56 0.56 94 1014.6
20260831050517 18 76 12.9 14.5 0.00 0.51 0.51 33 1063.9
20260831050017 15 158 1.6 6.4 0.05 0.56 0.56 94 1014.4
20260831045517 18 80 12.9 14.5 0.00 0.51 0.51 33 1064.5
20260831045017 15 158 1.6 3.2 0.15 0.56 0.56 94 1014.4
20260831044517 18 83 12.9 14.5 0.00 0.51 0.51 34 1065.2
20260831044017 15 113 1.6 6.4 0.15 0.56 0.56 94 1014.3
20260831043537 19 86 12.9 14.5 0.00 0.51 0.51 34 1065.9
20260831043017 15 113 1.6 3.2 0.53 0.53 0.53 93 1014.3
20260831042517 19 90 12.9 14.5 0.00 0.51 0.51 35 1066.5
20260831042017 15 158 3.2 9.7 0.53 0.53 0.53 93 1014.4
20260831041537 20 93 11.3 14.5 0.00 0.51 0.51 36 1067.2
20260831041017 15 135 3.2 8.0 0.53 0.53 0.53 93 1014.6
20260831040517 20 97 11.3 14.5 0.00 0.51 0.51 36 1067.9
20260831040017 15 113 4.8 9.7 0.51 0.51 0.51 93 1014.5
20260831035517 20 100 11.3 14.5 0.00 0.51 0.51 37 1068.6
20260831035017 14 158 3.2 8.0 0.43 0.43 0.43 93 1014.7
20260831034517 20 104 11.3 14.5 0.00 0.51 0.51 37 1069.3
20260831034037 14 203 9.7 16.1 0.41 0.41 0.41 93 1015.1
20260831033517 20 107 11.3 12.9 0.00 0.51 0.51 38 1070.0
20260831033017 13 180 9.7 25.7 0.00 0.00 0.00 92 1013.7
20260831032517 20 111 11.3 12.9 0.00 0.51 0.51 38 1070.7
20260831032016 13 0.0 0.0 0.00 0.00 0.00 92 1012.9
20260831031517 21 114 11.3 12.9 0.00 0.51 0.51 39 1071.4
20260831031016 13 0.0 0.0 0.00 0.00 0.00 92 1012.9
20260831030517 21 118 11.3 12.9 0.00 0.51 0.51 40 1072.1
20260831030017 13 0.0 0.0 0.00 0.00 0.00 92 1012.8
20260831025517 21 122 11.3 12.9 0.00 0.51 0.51 40 1072.9
20260831025017 12 0.0 0.0 0.00 0.00 0.00 92 1013.1
20260831024517 21 126 11.3 12.9 0.00 0.51 0.51 41 1073.6
20260831024037 12 0.0 0.0 0.00 0.00 0.00 92 1013.4
20260831023517 21 129 9.7 12.9 0.00 0.51 0.51 42 1074.4
20260831023016 12 0.0 0.0 0.00 0.00 0.00 92 1013.4
20260831022617 21 133 9.7 12.9 0.00 0.51 0.51 42 1075.1
20260831022017 12 0.0 0.0 0.00 0.00 0.00 92 1013.7
20260831021517 21 137 9.7 11.3 0.00 0.51 0.51 43 1075.9
20260831021037 12 0.0 0.0 0.00 0.00 0.00 92 1013.5
20260831020516 21 141 9.7 11.3 0.00 0.51 0.51 43 1076.6
20260831020017 12 0.0 0.0 0.00 0.00 0.00 92 1013.5
20260831015517 21 145 9.7 11.3 0.00 0.51 0.51 44 1077.4
20260831015016 12 0.0 0.0 0.00 0.00 0.00 91 1013.7
20260831014517 21 148 9.7 11.3 0.03 0.51 0.51 45 1078.1
20260831014037 12 0.0 0.0 0.00 0.00 0.00 91 1013.7
20260831013517 21 152 9.7 11.3 0.05 0.51 0.51 45 1078.9
20260831013016 12 0.0 0.0 0.00 0.00 0.00 91 1014.1
20260831012517 20 156 9.7 11.3 0.08 0.51 0.51 46 1079.7
20260831012036 12 0.0 0.0 0.00 0.00 0.00 91 1014.1
20260831011517 20 160 9.7 11.3 0.13 0.51 0.51 47 1080.4
20260831011016 12 0.0 0.0 0.00 0.00 0.00 91 1014.0
20260831010517 20 164 8.0 11.3 0.15 0.51 0.51 47 1081.2
20260831010016 12 0.0 0.0 0.00 0.00 0.00 91 1014.4
20260831005517 20 168 8.0 9.7 0.18 0.51 0.51 48 1082.0
20260831005016 12 0.0 0.0 0.00 0.00 0.00 91 1014.4
20260831004517 20 172 8.0 9.7 0.18 0.51 0.48 49 1082.8
20260831004016 12 0.0 0.0 0.00 0.00 0.00 90 1014.6
20260831003517 20 176 8.0 9.7 0.18 0.51 0.46 49 1083.5
20260831003016 12 0.0 0.0 0.00 0.00 0.00 90 1014.5
20260831002537 19 180 8.0 9.7 0.18 0.51 0.43 50 1084.3
20260831002016 13 0.0 0.0 0.00 0.00 0.00 90 1014.7
20260831001517 19 184 8.0 9.7 0.15 0.51 0.38 51 1085.1
20260831001016 13 0.0 0.0 0.00 0.00 0.00 90 1014.8
20260831000517 18 187 8.0 9.7 0.15 0.51 0.36 51 1085.9
20260831000036 13 0.0 0.0 0.00 0.00 0.00 90 1015.0
20260830235537 18 191 8.0 9.7 0.15 0.51 0.33 52 1086.6
20260830235036 13 0.0 0.0 0.00 0.00 0.00 90 1014.9
20260830234517 18 195 8.0 9.7 0.18 0.51 0.30 53 1087.4
20260830234016 13 0.0 0.0 0.00 0.00 0.00 89 1014.8
20260830233537 18 199 6.4 8.0 0.18 0.51 0.28 53 1088.2